Date,TemperatureHighF,TemperatureAvgF,TemperatureLowF,DewpointHighF,DewpointAvgF,DewpointLowF,HumidityHigh,HumidityAvg,HumidityLow,PressureMaxIn,PressureMinIn,WindSpeedMaxMPH,WindSpeedAvgMPH,GustSpeedMaxMPH,PrecipitationSumIn
2013-8-1,76.5,62.7,52.2,56.0,52.1,47.5,87,70,45,30.04,29.92,7,1,7,0.00
2013-8-2,81.4,64.0,52.6,58.7,53.3,47.7,88,70,41,29.94,29.85,5,1,5,0.00
2013-8-3,88.4,64.9,53.5,62.6,54.0,49.1,87,70,39,29.94,29.84,7,1,7,0.00
2013-8-4,79.9,63.6,56.5,59.3,54.8,51.0,89,75,46,29.97,29.89,6,1,6,0.00
2013-8-5,79.6,64.3,58.5,59.7,55.3,52.4,87,74,47,29.98,29.89,6,1,6,0.00
2013-8-6,75.6,65.5,59.4,59.4,55.5,52.9,83,71,53,30.00,29.93,6,1,6,0.00
2013-8-7,77.8,64.7,59.0,58.6,55.6,53.3,85,73,51,30.05,29.98,6,1,6,0.00
2013-8-8,76.0,64.6,58.5,59.8,56.1,53.4,85,75,54,29.99,29.89,7,1,7,0.00
2013-8-9,78.5,64.1,57.8,59.5,55.3,52.0,85,74,52,29.95,29.88,5,1,5,0.00
2013-8-10,79.4,64.9,58.7,60.6,56.7,53.6,87,76,51,30.00,29.94,5,1,5,0.00
2013-8-11,85.0,66.6,57.6,60.3,57.0,52.7,87,73,41,29.98,29.89,5,1,5,0.00
2013-8-12,87.8,66.8,54.4,60.7,54.7,50.6,89,68,33,29.94,29.88,5,1,5,0.00
2013-8-13,83.5,62.2,52.9,61.8,53.9,48.8,90,76,41,29.91,29.86,4,1,4,0.00
2013-8-20,88.2,73.1,59.8,63.0,58.1,53.1,85,61,42,29.80,29.72,6,1,6,0.00
2013-8-21,83.3,66.4,57.6,60.6,55.9,51.5,82,70,44,29.84,29.76,5,1,5,0.00
2013-8-22,77.2,64.4,57.1,59.6,55.8,51.9,86,74,51,29.89,29.80,6,1,6,0.00
2013-8-23,79.7,64.3,57.8,60.5,55.8,52.5,83,75,48,29.85,29.74,5,1,5,0.00
2013-8-24,80.6,65.4,54.5,62.1,56.5,51.0,89,74,52,29.82,29.76,7,1,7,0.00
2013-8-25,80.3,69.3,63.9,65.2,61.3,57.8,87,76,57,29.86,29.80,8,1,8,0.00
2013-8-26,83.0,67.6,59.8,61.9,58.1,52.9,86,73,47,29.91,29.82,6,1,6,0.00
2013-8-27,83.5,66.2,54.5,63.2,56.1,50.3,88,72,45,29.83,29.74,5,1,5,0.00
2013-8-28,83.5,68.4,61.4,64.7,60.2,56.3,88,76,51,29.86,29.77,6,1,6,0.00
2013-8-29,88.9,69.5,62.8,66.7,61.5,59.1,89,77,47,29.96,29.86,5,1,5,0.00
2013-8-30,93.4,71.6,59.4,67.3,60.8,54.7,93,72,40,29.95,29.84,6,1,6,0.00
2013-8-31,85.9,68.4,58.7,63.5,57.6,52.2,88,70,47,29.91,29.81,5,1,5,0.00